CW8919 Weather Reports


time (UTC)temp
C
wind
direction
speed
KPH
gust
KPH
rain 1hr
cm
rain 24hr
cm
rain mn
cm
humidity
%
barometer
mb
20180221225941 12 42 4.8 17.7 0.00 0.00 0.00 65 1010.5
20180221224437 11 35 4.8 16.1 0.00 0.00 0.00 68 1010.5
20180221222941 11 25 6.4 14.5 0.00 0.00 0.00 72 1010.5
20180221221432 11 20 1.6 8.0 0.00 0.00 0.00 73 1010.4
20180221215941 11 35 3.2 14.5 0.00 0.00 0.00 73 1010.4
20180221214439 12 35 4.8 16.1 0.00 0.00 0.00 72 1010.3
20180221212930 12 358 4.8 16.1 0.00 0.00 0.00 71 1010.2
20180221211426 12 353 3.2 20.9 0.00 0.00 0.00 70 1010.2
20180221205926 12 350 4.8 27.4 0.00 0.00 0.00 70 1010.1
20180221204440 12 6 12.9 25.7 0.00 0.00 0.00 72 1010.0
20180221202940 12 352 16.1 27.4 0.00 0.00 0.00 74 1010.0
20180221201435 12 341 14.5 27.4 0.00 0.00 0.00 75 1009.9
20180221195928 12 358 11.3 25.7 0.00 0.00 0.00 75 1009.8
20180221194422 12 351 17.7 30.6 0.00 0.00 0.00 76 1009.8
20180221192932 12 339 14.5 27.4 0.00 0.00 0.00 77 1009.8
20180221191428 12 346 19.3 29.0 0.00 0.00 0.00 78 1009.6
20180221185928 12 345 11.3 30.6 0.00 0.00 0.00 79 1009.7
20180221184429 13 347 12.9 29.0 0.00 0.00 0.00 77 1009.6
20180221182934 13 350 19.3 27.4 0.00 0.00 0.00 75 1009.5
20180221181430 13 355 14.5 25.7 0.00 0.00 0.00 74 1009.5
20180221175931 13 324 12.9 24.1 0.00 0.00 0.00 72 1009.5
20180221174428 14 353 6.4 27.4 0.00 0.00 0.00 70 1009.4
20180221172934 14 351 8.0 24.1 0.00 0.00 0.00 67 1009.4
20180221171432 15 356 11.3 27.4 0.00 0.00 0.00 64 1009.2
20180221165934 15 359 11.3 24.1 0.00 0.00 0.00 61 1009.2
20180221164430 16 360 8.0 32.2 0.00 0.00 0.00 60 1009.2
20180221162936 17 8 16.1 30.6 0.00 0.00 0.00 55 1009.4
20180221161430 17 360 9.7 27.4 0.00 0.00 0.00 53 1009.4
20180221155923 17 358 12.9 35.4 0.00 0.00 0.00 52 1009.4
20180221154423 17 331 12.9 27.4 0.00 0.00 0.00 52 1009.3
20180221152928 18 351 8.0 24.1 0.00 0.00 0.00 48 1009.4
20180221151424 19 323 12.9 20.9 0.00 0.00 0.00 46 1009.4
20180221145932 18 177 0.0 9.7 0.00 0.00 0.00 44 1009.4
20180221144425 18 174 9.7 19.3 0.00 0.00 0.00 43 1009.5
20180221142929 18 189 1.6 12.9 0.00 0.00 0.00 43 1009.8
20180221141431 18 188 9.7 14.5 0.00 0.00 0.00 44 1010.2
20180221135941 20 51 1.6 8.0 0.00 0.00 0.00 40 1010.5
20180221134433 21 45 6.4 17.7 0.00 0.00 0.00 34 1010.8
20180221132939 20 54 6.4 20.9 0.00 0.00 0.00 35 1010.9
20180221131430 20 46 8.0 16.1 0.00 0.00 0.00 35 1011.3
20180221125931 20 65 4.8 22.5 0.00 0.00 0.00 37 1011.4
20180221124432 20 33 4.8 17.7 0.00 0.00 0.00 37 1011.7
20180221122934 19 67 12.9 22.5 0.00 0.00 0.00 38 1012.1
20180221121433 18 10 6.4 19.3 0.00 0.00 0.00 41 1012.1
20180221115934 18 20 11.3 27.4 0.00 0.00 0.00 41 1012.5
20180221114431 18 48 12.9 30.6 0.00 0.00 0.00 41 1012.9
20180221112935 18 38 11.3 33.8 0.00 0.00 0.00 41 1013.0
20180221111436 17 20 12.9 25.7 0.00 0.00 0.00 42 1013.0
20180221105938 17 343 0.0 17.7 0.00 0.00 0.00 47 1013.2
20180221104432 16 358 3.2 12.9 0.00 0.00 0.00 46 1013.3
20180221102935 16 360 6.4 14.5 0.00 0.00 0.00 47 1013.4
20180221101432 15 2 8.0 12.9 0.00 0.00 0.00 47 1013.4
20180221095941 15 10 6.4 14.5 0.00 0.00 0.00 50 1013.4
20180221094441 14 6 0.0 3.2 0.00 0.00 0.00 53 1013.5
20180221092924 13 5 1.6 4.8 0.00 0.00 0.00 54 1013.6
20180221091426 13 360 1.6 6.4 0.00 0.00 0.00 55 1013.7
20180221085935 12 360 1.6 4.8 0.00 0.00 0.00 56 1013.7
20180221084430 12 360 3.2 9.7 0.00 0.00 0.00 57 1013.7
20180221082937 12 360 3.2 6.4 0.00 0.00 0.00 58 1013.7
20180221081434 11 360 3.2 12.9 0.00 0.00 0.00 60 1013.3
20180221075934 11 360 3.2 8.0 0.00 0.00 0.00 60 1013.1
20180221074428 10 360 1.6 9.7 0.00 0.00 0.00 61 1013.1
20180221072941 10 360 0.0 9.7 0.00 0.00 0.00 61 1013.0
20180221071434 11 360 0.0 4.8 0.00 0.00 0.00 61 1012.9
20180221065932 11 360 1.6 9.7 0.00 0.00 0.00 60 1012.8
20180221064440 11 1 4.8 12.9 0.00 0.00 0.00 60 1012.9
20180221062927 11 1 6.4 14.5 0.00 0.00 0.00 59 1013.0
20180221061438 11 2 1.6 9.7 0.00 0.00 0.00 58 1013.1
20180221055930 11 3 0.0 9.7 0.00 0.00 0.00 58 1013.4
20180221054424 11 2 1.6 9.7 0.00 0.00 0.00 57 1013.4
20180221052926 11 3 1.6 9.7 0.00 0.00 0.00 57 1013.5
20180221051438 11 4 1.6 9.7 0.00 0.00 0.00 57 1013.4
20180221045941 12 4 0.0 6.4 0.00 0.00 0.00 57 1013.5
20180221044439 12 4 1.6 8.0 0.00 0.00 0.00 57 1013.7
20180221042937 12 4 0.0 3.2 0.00 0.00 0.00 56 1013.8
20180221041435 12 5 4.8 9.7 0.00 0.00 0.00 56 1013.9
20180221035925 12 5 0.0 6.4 0.00 0.00 0.00 56 1013.9
20180221034439 12 5 1.6 6.4 0.00 0.00 0.00 56 1014.0
20180221032923 12 5 0.0 3.2 0.00 0.00 0.00 57 1014.2
20180221031436 12 5 0.0 3.2 0.00 0.00 0.00 57 1014.4
20180221025937 12 5 0.0 0.0 0.00 0.00 0.00 57 1014.5
20180221024436 12 5 1.6 4.8 0.00 0.00 0.00 58 1014.7
20180221022936 12 5 0.0 0.0 0.00 0.00 0.00 59 1014.9
20180221021430 12 5 0.0 8.0 0.00 0.00 0.00 60 1014.9
20180221015943 12 5 1.6 8.0 0.00 0.00 0.00 63 1015.0
20180221014436 12 5 0.0 4.8 0.00 0.00 0.00 64 1015.2
20180221012937 12 5 0.0 4.8 0.00 0.00 0.00 65 1015.3
20180221011436 12 5 0.0 0.0 0.00 0.00 0.00 67 1015.5
20180221005938 12 5 1.6 4.8 0.00 0.00 0.00 67 1015.9
20180221004432 12 5 1.6 9.7 0.00 0.00 0.00 68 1016.0
20180221002934 12 4 4.8 12.9 0.00 0.00 0.00 69 1016.1
20180221001423 12 3 3.2 16.1 0.00 0.00 0.00 68 1016.2
20180220235923 12 2 6.4 12.9 0.00 0.00 0.00 68 1016.4
20180220234437 12 360 4.8 17.7 0.00 0.00 0.00 68 1016.4
20180220232941 12 1 3.2 9.7 0.00 0.00 0.00 68 1016.5
20180220231434 12 358 1.6 14.5 0.00 0.00 0.00 67 1016.5